User: anonymous   Login
Location: Namasale
(1.5000°N, 32.6167°E)
Time: 17:28:18
(UTC+00:00)
Language:

Cosmos 2058 Rocket - Orbit

View from above orbital plane
View from above orbital plane
View from above satellite
View from above satellite

Ground track
Ground track

The orbit data is extracted from the following two-line orbital elements,

1 20466U 90010B   20196.29244008  .00000053  00000-0  37692-5 0  9995
2 20466  82.5023  41.6591 0019073 247.8404 112.0786 14.81387823643761
Epoch (UTC): 14 July 2020 07:01:06
Eccentricity: 0.0019073
inclination: 82.5023°
perigee height: 611 km
apogee height: 638 km
right ascension of ascending node: 41.6591°
argument of perigee: 247.8404°
revolutions per day: 14.81387823
mean anomaly at epoch: 112.0786°
orbit number at epoch: 64376

The dashed part of the orbit path shows where the satellite is in the earth's shadow,  

DLR